Погода в Усть-Муе

Россия / Республика Бурятия     56°24′49″N   115°37′39″E
темп.,
°C
ветер,
м/с
пор.,
м/с
влажн.,
%
обл.,
%
осадки,
мм/ч
давл.,
гПа
погр.,
м
12 мая, ср
ср1223:00+3ссз217914 0.0 101119
02:00+2ссз228519 0.0 101120
05:00+1ссз11835 0.0 101127
08:00+7ссз125514 0.0 1009844
11:00+11ю013855 0.0 10071730
14:00+12ссв323374 0.0 10052268
17:00+10ссв444145 0.0 1005898
20:00+6ссв2359100 0.1 1007212
13 мая, чт
чт1323:00+5ссв236486 0.0 1008173
02:00+3св117274 0.0 100820
05:00+2с1170100 0.0 100966
08:00+6ссз1251100 0.0 1009917
11:00+9с3239100 0.0 10071668
14:00+10ссв4337100 0.0 10071745
17:00+9ссв4441100 0.0 10091359
20:00+6ссв2456100 0.0 1010146
14 мая, пт
пт1423:00+4ссв2264100 0.0 101242
02:00+2с227181 0.0 101219
05:00+3сз2373100 0.0 1012118
08:00+6ссз3453100 0.0 10121051
11:00+9с3636100 0.0 10111964
14:00+11с353073 0.0 10102313
17:00+11с353267 0.0 10102225
20:00+7ссз22455 0.0 101120
15 мая, сб
сб1523:00+4с11590 0.0 101313
02:00+2ссв11675 0.0 101310
05:00+1всв00705 0.0 101310
08:00+7ююз114922 0.0 1011436
11:00+12юз123382 0.0 10081361
14:00+15ю2424100 0.0 10052252
17:00+14зюз3324100 0.0 10022282
20:00+10ссз5847100 0.0 1004267
16 мая, вс
вс1623:00+7з2372100 0.2 1005143
02:00+6зсз2367100 0.3 100579
05:00+5зюз257566 0.0 1005324
08:00+8зсз585126 0.1 10061661
11:00+10сз6727100 0.0 10063057
14:00+10ссз673184 0.1 10072505
17:00+10сз592642 0.0 10072754
20:00+6ссз224067 0.0 100825